Regional Weather Roundup
Issued by NWS

Home | Current Version | Previous Version | Graphics & Text | Print | Product List | Glossary On
Versions: 1 2 3 4 5 6 7 8 9 10 11 12 13 14 15 16 17 18 19 20 21 22 23 24 25 26 27 28 29 30 31 32 33 34 35 36 37 38 39 40 41 42 43 44 45 46 47 48 49
000
ASUS45 KCYS 031710
RWRWY

WYOMING REGIONAL WEATHER ROUNDUP
NATIONAL WEATHER SERVICE CHEYENNE WY
1100 AM MDT SUN MAY 03 2015

NOTE:  "FAIR" INDICATES FEW OR NO CLOUDS BELOW 12,000 FEET
WITH NO SIGNIFICANT WEATHER AND/OR OBSTRUCTIONS TO VISIBILITY.

WYZ001-031800-
YELLOWSTONE NATIONAL PARK

CITY           SKY/WX    TMP DP  RH WIND       PRES   REMARKS
LK YELLOWSTONE   N/A     51  25  36 VRB5      30.06S
W YELLOWSTONE  NOT AVBL

$$
WYZ002>013-054>058-071-098>099-031800-
NORTHERN WYOMING

CITY           SKY/WX    TMP DP  RH WIND       PRES   REMARKS
JACKSON        SUNNY     59  30  33 S12G18    30.03R
CODY           FAIR      52  34  50 N13G21    30.01S
GREYBULL       FAIR      61  33  35 VRB6      29.98R
WORLAND        FAIR      56  34  43 N7        30.00R
SHERIDAN       PTSUNNY   57  37  47 E6        30.04R
BUFFALO        FAIR      53  37  54 N7        30.05R
GILLETTE       FAIR      59  37  44 N12G20    30.02R
HULETT         FAIR      57  34  41 NE10G18   30.04R
NEWCASTLE      FAIR      64  32  29 S14G22    29.97R

$$
WYZ014>020-022>026-101>103-031800-
CENTRAL WYOMING

CITY           SKY/WX    TMP DP  RH WIND       PRES   REMARKS
BIG PINEY      CLOUDY    59  32  36 VRB3      30.07S
PINEDALE       FAIR      55  32  41 CALM      30.08S
DUBOIS         FAIR      54  27  35 W15G25    30.04S
LANDER         FAIR      62  35  36 NW13G18   29.99R
RIVERTON       FAIR      64  32  30 NE12      29.99R
CASPER         FAIR      61  36  39 N8        30.02S
DOUGLAS        FAIR      60  35  39 W7        30.01R

$$
WYZ021-027>030-104>119-031800-
SOUTHERN WYOMING

CITY           SKY/WX    TMP DP  RH WIND       PRES   REMARKS
EVANSTON       FAIR      62  32  32 VRB3      30.05F
KEMMERER       FAIR      61  32  33 S7        30.07S
FORT BRIDGER   CLOUDY    61  37  41 S5        30.09S
ROCK SPRINGS   FAIR      56  40  55 NW9       30.07S
DIXON          FAIR      61  38  41 W8        30.08R
RAWLINS        FAIR      63  32  31 W9        30.05R
SARATOGA       FAIR      63  34  34 CALM      30.07R
LARAMIE        FAIR      59  37  44 E7        30.07R
CHEYENNE       FAIR      65  35  33 NW18G26   30.03R
TORRINGTON     FAIR      65  36  34 NE17G26   29.97R
PINE BLUFFS    FAIR      64  41  42 N17G24    29.99R

$$


USA.gov is the U.S. government's official web portal to all federal, state and local government web resources and services.